Regional Weather Roundup
Issued by NWS

Home | Current Version | Previous Version | Graphics & Text | Print | Product List | Glossary On
Versions: 1 2 3 4 5 6 7 8 9 10 11 12 13 14 15 16 17 18 19 20 21 22 23 24 25 26 27 28 29 30 31 32 33 34 35 36 37 38 39 40 41 42 43 44 45 46 47 48 49 50
000
ASUS43 KDMX 271707
RWRIA

WEATHER ROUNDUP FOR IOWA
NATIONAL WEATHER SERVICE DES MOINES IA
1200 PM CDT MON APR 27 2015

NOTE: "FAIR" INDICATES FEW OR NO CLOUDS BELOW 12,000 FEET WITH NO
SIGNIFICANT WEATHER AND/OR OBSTRUCTIONS TO VISIBILITY.

* - THESE STATIONS ARE NOT NWS STATIONS...THUS NOT UNDER NWS
QUALITY CONTROL.  THEY ALSO DO NOT REPORT WEATHER SUCH
AS PRECIPITATION OR FOG.

IAZ001>003-012>014-020>022-031>034-043>046-271800-
   NORTHWEST IOWA

CITY           SKY/WX    TMP DP  RH WIND       PRES   REMARKS
CARROLL *      SUNNY     63  27  25 N13G22    30.21S
CHEROKEE *     SUNNY     63  30  29 NE12      30.22S
DENISON *      SUNNY     61  30  31 N10G17    30.19S
LE MARS *      SUNNY     63  25  23 VRB6G13   30.22F
ORANGE CITY *  SUNNY     63  28  27 NE6       30.22S
SHELDON *      SUNNY     63  23  22 NE8G18    30.21F
SIOUX CITY     SUNNY     64  26  23 VRB5      30.22S
SPENCER        SUNNY     63  28  26 NE13G21   30.22F
STORM LAKE *   SUNNY     61  23  23 NE12G20   30.22S
$$

IAZ055>058-069>071-079>083-090>094-271800-
   SOUTHWEST IOWA

CITY           SKY/WX    TMP DP  RH WIND       PRES   REMARKS
ATLANTIC *     SUNNY     61  30  31 NE9       30.21S
AUDUBON *      SUNNY     63  27  25 N12       30.22R
CLARINDA *     SUNNY     63  32  31 NE12      30.20F
COUNCIL BLFS * SUNNY     61  34  36 NE12      30.21S
CRESTON *      SUNNY     61  30  31 NE10G17   30.20S
HARLAN  *      SUNNY     61  28  29 NE6G14    30.24S
LAMONI         SUNNY     64  36  35 E9        30.18F
RED OAK *      SUNNY     61  32  33 N14       30.20F
SHENANDOAH *   SUNNY     63  32  31 NE8G17    30.20F
$$

IAZ047>049-059>061-072>074-084-271800-
   CENTRAL IOWA

CITY           SKY/WX    TMP DP  RH WIND       PRES   REMARKS
AMES           SUNNY     61  33  35 NE12G24   30.20S
ANKENY *       SUNNY     63  34  34 N12       30.20S
CHARITON *     SUNNY     61  32  33 N12G18    30.18F
DES MOINES     MOSUNNY   65  28  24 N14       30.20S
GRINNELL*      SUNNY     59  32  36 NE10      30.20S
KNOXVILLE *    SUNNY     61  32  33 N12       30.18S
MARSHALLTOWN   SUNNY     59  34  39 NE9       30.20R
PELLA *        SUNNY     61  41  48 N9        30.20S
PERRY *          N/A     61  30  31 NE9       30.20S
$$

IAZ004>006-015-016-023>025-035-036-271800-
   NORTH CENTRAL IOWA

CITY           SKY/WX    TMP DP  RH WIND       PRES   REMARKS
ALGONA *       SUNNY     59  32  36 NE15      30.22F
CLARION *      SUNNY     59  30  33 NE12G20   30.21S
ESTHERVILLE    SUNNY     61  30  31 NE12G21   30.22F
FORT DODGE *   SUNNY     61  34  36 N8G17     30.22S
MASON CITY     SUNNY     59  31  34 N10       30.23F
FOREST CITY *  SUNNY     57  30  35 N8        30.23S
IOWA FALLS *     N/A     59  30  33 NE12G17   30.21S
$$

IAZ007>011-017>019-026>030-037>042-050>054-066-271800-
   NORTHEAST IOWA

CITY           SKY/WX    TMP DP  RH WIND       PRES   REMARKS
CEDAR RAPIDS   SUNNY     59  36  41 E8        30.18S
CHARLES CITY * SUNNY     57  32  38 VRB5G13   30.22F
CLINTON *      SUNNY     57  37  47 N13       30.19S
DECORAH *      SUNNY     55  32  41 VRB5G14   30.19S
DUBUQUE        SUNNY     56  33  42 NE13G18   30.17F
MONTICELLO *   SUNNY     59  32  36 N12       30.17F
OELWEIN *      SUNNY     57  34  41 N9        30.20F
WATERLOO       SUNNY     59  34  39 N9G20     30.20S
$$

IAZ064-065-067-068-078-271800-
   EAST CENTRAL IOWA

CITY           SKY/WX    TMP DP  RH WIND       PRES   REMARKS
DAVENPORT      SUNNY     58  35  42 NE9G18    30.17F
IOWA CITY      SUNNY     58  36  43 NE7       30.19F
MT. PLEASANT * SUNNY     59  36  41 N10       30.18S
MUSCATINE *    SUNNY     61  36  39 NE10      30.17F
QUAD CITIES    SUNNY     58  33  39 N5        30.16F
$$

IAZ062-063-075>077-085>089-095>099-271800-
   SOUTHEAST IOWA

CITY           SKY/WX    TMP DP  RH WIND       PRES   REMARKS
BURLINGTON     SUNNY     59  37  44 CALM      30.16S
FAIRFIELD *    SUNNY     59  37  44 NE8G14    30.19R
FORT MADISON * SUNNY     59  36  41 NE3       30.18S
KEOKUK *       SUNNY     59  37  44 NE8G14    30.17S
OSKALOOSA *      N/A     61  36  39 N10       30.19S
CENTERVILLE *  SUNNY    N/A N/A N/A MISG        N/A
OTTUMWA        SUNNY     62  39  42 N12       30.18S
WASHINGTON *   SUNNY     59  36  41 NE7G14    30.18S
$$

ABBREVIATIONS USED IN REMARKS
   TC - TEMPERATURES IN CELSIUS
  WCI - WIND CHILL INDEX
   HX - HEAT INDEX
  VSB - VISIBILITY
$$



USA.gov is the U.S. government's official web portal to all federal, state and local government web resources and services.